Search for airport 
image banner adimage banner ad
image banner ad

SVBC - Barcelona / General Jose Antonio Anzoategui Intl

Located in Barcelona, Venezuela

ICAO - SVBC, IATA - BLA

Data provided by Airmate  

General information

Coordinates: N10°6'40" W64°41'32"
Elevation is 30 feet MSL.
 
Rated:
View ratings: [VIEW]


View others Airports in Anzoategui

Operational data

Open for public use
Current time UTC:
Current local time:
Weather
METAR: SVBC 032302Z AUTO NIL
TAF: TAF SVBC 032200Z 0312/0412 09015KT 9999 BKN010 TX35/18Z TN24/08Z BECMG 0400/0404 09008KT SCT010 TEMPO 0400/0404 06003KT SCT010 SCT070
View NOTAMs / SUP AIP / TFR affecting this airport [VIEW]
Communications frequencies: [VIEW]

Runways:

RWY identifierQFULength (ft)Width (ft)SurfaceLDA (ft)
0213°9186131ASP
20193°9186131
15142°9843131
33322°9843131

Airport contact information

Address: Barcelona Venezuela

Satellite view of SVBC